Location: Ashton River Estates
(39.1762°N, 77.0261°W)
Time: 20:57:08
(UTC+00:00)

Cosmos 1689 Rocket - Pass Details

Date: 29 October 2020
Orbit: 360 x 374 km, 97.5° (Epoch: 02 December)

Event Time Altitude Azimuth Distance (km) Brightness Sun altitude
Rises 22:55:09 0° 19° (NNE) 2,202 5.6 -9.3°
Reaches altitude 10° 22:57:10 10° 27° (NNE) 1,349 4.5 -9.7°
Maximum altitude 22:59:53 40° 99° (E) 551 2.4 -10.2°
Drops below altitude 10° 23:02:36 10° 171° (S) 1,338 4.8 -10.8°
Sets 23:04:35 0° 180° (S) 2,179 6.0 -11.1°
